Weather History for KOXC - January, 2014

Change the Weather History Date:

Monday, January 20, 2014

  Actual Average Record
Temperature  
Mean Temperature 32 °F -  
Max Temperature 39 °F 28 °F 55 °F (2006)
Min Temperature 24 °F 15 °F 6 °F (2000)
Degree Days  
Heating Degree Days 34    
Moisture  
Dew Point 18 °F    
Average Humidity 56    
Maximum Humidity 65    
Minimum Humidity 50    
Precipitation  
Precipitation 0.00 in - - ()
Sea Level Pressure  
Sea Level Pressure 29.66 in    
Wind  
Wind Speed 10 mph (West)    
Max Wind Speed 14 mph    
Max Gust Speed 23 mph    
Visibility 10 miles    
Events Snow    
Averages and records for this station are not official NWS values.
T = Trace of Precipitation, MM = Missing Value Source: NWS Daily Summary

Daily Weather History Graph

Daily Weather History Graph

Search for Another Location

Airport or City:

Trip Planner

Search our weather history database for the weather conditions in past years. The results will help you decide how hot, cold, wet, or windy it might be!

Date:

Astronomy

Jan. 20, 2014 Rise Set
Actual Time 7:13 AM EST 4:53 PM EST
Civil Twilight 6:43 AM EST 5:23 PM EST
Nautical Twilight 6:09 AM EST 5:57 PM EST
Astronomical Twilight 5:36 AM EST 6:30 PM EST
Moon 9:29 PM EST (1/20) 9:08 AM EST (1/20)
Length of Visible Light 10h 40m
Length of Day
9h 39m
Waning Gibbous, 83% of the Moon is Illuminated
Jan 20
Waning Gibbous
Jan 24
Last Quarter
Jan 30
New
Feb 6
First Quarter
Feb 14
Full

Hourly Weather History & Observations

Time (EST) Temp. Windchill Dew Point Humidity Pressure Visibility Wind Dir Wind Speed Gust Speed Precip Events Conditions
12:15 AM 32.0 °F 23.6 °F 19.4 °F 60% 29.60 in 10.0 mi WSW 10.4 mph - N/A   Overcast
12:35 AM 32.0 °F 24.2 °F 19.4 °F 60% 29.60 in 10.0 mi WSW 9.2 mph 16.1 mph N/A   Overcast
12:55 AM 32.0 °F 24.8 °F 19.4 °F 60% 29.59 in 10.0 mi West 8.1 mph - N/A   Overcast
1:15 AM 32.0 °F 24.2 °F 17.6 °F 55% 29.60 in 10.0 mi WSW 9.2 mph 19.6 mph N/A   Mostly Cloudy
1:35 AM 32.0 °F 24.2 °F 17.6 °F 55% 29.59 in 10.0 mi West 9.2 mph - N/A   Partly Cloudy
1:55 AM 32.0 °F 24.2 °F 17.6 °F 55% 29.59 in 10.0 mi West 9.2 mph - N/A   Clear
2:15 AM 32.0 °F 23.6 °F 17.6 °F 55% 29.59 in 10.0 mi WSW 10.4 mph - N/A   Clear
2:35 AM 32.0 °F 23.6 °F 17.6 °F 55% 29.60 in 10.0 mi West 10.4 mph 20.7 mph N/A   Clear
2:55 AM 32.0 °F 23.0 °F 17.6 °F 55% 29.61 in 10.0 mi WSW 11.5 mph 18.4 mph N/A   Clear
3:15 AM 32.0 °F 24.8 °F 17.6 °F 55% 29.60 in 10.0 mi WSW 8.1 mph 16.1 mph N/A   Clear
3:35 AM 32.0 °F 24.2 °F 17.6 °F 55% 29.60 in 10.0 mi WSW 9.2 mph - N/A   Clear
3:55 AM 32.0 °F 24.8 °F 17.6 °F 55% 29.61 in 10.0 mi WSW 8.1 mph - N/A   Clear
4:15 AM 32.0 °F 25.6 °F 17.6 °F 55% 29.62 in 10.0 mi WSW 6.9 mph 16.1 mph N/A   Partly Cloudy
4:35 AM 32.0 °F 24.2 °F 17.6 °F 55% 29.62 in 10.0 mi WSW 9.2 mph - N/A   Mostly Cloudy
4:55 AM 32.0 °F 24.2 °F 19.4 °F 60% 29.60 in 10.0 mi West 9.2 mph - N/A   Scattered Clouds
5:15 AM 33.8 °F 26.4 °F 19.4 °F 56% 29.59 in 10.0 mi West 9.2 mph 16.1 mph N/A   Clear
5:35 AM 33.8 °F 25.8 °F 19.4 °F 56% 29.59 in 10.0 mi West 10.4 mph 17.3 mph N/A   Mostly Cloudy
5:45 AM 30.2 °F 21.9 °F 19.4 °F 64% 29.59 in 10.0 mi West 9.2 mph 17.3 mph N/A   Mostly Cloudy
6:48 AM 33.8 °F 26.4 °F 19.4 °F 56% 29.60 in 10.0 mi West 9.2 mph 17.3 mph N/A   Overcast
7:48 AM 33.8 °F 25.3 °F 19.4 °F 56% 29.60 in 10.0 mi West 11.5 mph 19.6 mph N/A   Overcast
8:48 AM 33.8 °F 28.6 °F 19.4 °F 56% 29.61 in 10.0 mi WSW 5.8 mph 17.3 mph N/A   Scattered Clouds
9:48 AM 33.8 °F 26.4 °F 19.4 °F 56% 29.61 in 10.0 mi WSW 9.2 mph - N/A   Mostly Cloudy
10:45 AM 35.6 °F 29.2 °F 21.2 °F 56% 29.62 in 10.0 mi West 8.1 mph 17.3 mph N/A   Overcast
11:50 AM 37.4 °F 30.8 °F 21.2 °F 52% 29.58 in 10.0 mi West 9.2 mph - N/A   Mostly Cloudy
12:50 PM 39.2 °F - 24.8 °F 56% 29.56 in 10.0 mi North - - N/A   Mostly Cloudy
1:45 PM 39.2 °F 33.0 °F 23.0 °F 52% 29.56 in 10.0 mi West 9.2 mph 23.0 mph N/A   Scattered Clouds
2:45 PM 39.2 °F 33.0 °F 23.0 °F 52% 29.58 in 10.0 mi WNW 9.2 mph 18.4 mph N/A   Mostly Cloudy
3:45 PM 39.2 °F 32.0 °F 24.8 °F 56% 29.61 in 10.0 mi WNW 11.5 mph 18.4 mph N/A   Mostly Cloudy
4:45 PM 37.4 °F 29.8 °F 24.8 °F 60% 29.65 in 10.0 mi West 11.5 mph 18.4 mph N/A   Mostly Cloudy
5:45 PM 37.4 °F 32.8 °F 24.8 °F 60% 29.68 in 10.0 mi West 5.8 mph 20.7 mph N/A   Mostly Cloudy
6:45 PM 35.6 °F 29.9 °F 24.8 °F 65% 29.71 in 10.0 mi West 6.9 mph 16.1 mph N/A Snow Light Snow
7:45 PM 35.6 °F 27.5 °F 24.8 °F 65% 29.75 in 10.0 mi WNW 11.5 mph - N/A Snow Light Snow
9:15 PM 28.4 °F 17.5 °F 17.6 °F 64% 29.81 in 10.0 mi NNW 13.8 mph 19.6 mph N/A   Mostly Cloudy
9:35 PM 28.4 °F 17.5 °F 15.8 °F 59% 29.82 in 10.0 mi NNW 13.8 mph 19.6 mph N/A   Partly Cloudy
9:55 PM 26.6 °F 16.2 °F 14.0 °F 59% 29.83 in 10.0 mi NNW 11.5 mph - N/A   Scattered Clouds
10:15 PM 26.6 °F 16.2 °F 12.2 °F 55% 29.84 in 10.0 mi NNW 11.5 mph 18.4 mph N/A   Partly Cloudy
10:35 PM 26.6 °F 17.5 °F 10.4 °F 51% 29.85 in 10.0 mi NNW 9.2 mph - N/A   Clear
10:55 PM 24.8 °F 14.6 °F 10.4 °F 54% 29.85 in 10.0 mi North 10.4 mph - N/A   Clear
11:15 PM 24.8 °F 15.3 °F 8.6 °F 50% 29.86 in 10.0 mi North 9.2 mph - N/A   Clear
11:35 PM 24.8 °F 15.3 °F 8.6 °F 50% 29.87 in 10.0 mi NNW 9.2 mph - N/A   Clear
11:55 PM 24.8 °F 14.0 °F 8.6 °F 50% 29.88 in 10.0 mi North 11.5 mph - N/A   Clear